Time,TemperatureF,DewpointF,PressureIn,WindDirection,WindDirectionDegrees,WindSpeedMPH,WindSpeedGustMPH,Humidity,HourlyPrecipIn,Conditions,Clouds,dailyrainin,SoftwareType,DateUTC
2013-03-11 00:02:00,29.0,27.0,29.97,West,280,2.0,3.0,92,0.00,,,0.00,,2013-03-11 07:02:00,
2013-03-11 00:11:00,29.0,27.0,29.97,West,280,2.0,3.0,92,0.00,,,0.00,,2013-03-11 07:11:00,
2013-03-11 00:21:00,28.0,26.0,29.97,NW,307,3.0,4.0,92,0.00,,,0.00,,2013-03-11 07:21:00,
2013-03-11 00:32:00,28.0,26.0,29.97,WNW,290,1.0,4.0,93,0.00,,,0.00,,2013-03-11 07:32:00,
2013-03-11 00:42:00,28.0,26.0,29.97,WNW,290,1.0,4.0,93,0.00,,,0.00,,2013-03-11 07:42:00,
2013-03-11 00:52:00,28.0,26.0,29.97,WNW,290,1.0,4.0,93,0.00,,,0.00,,2013-03-11 07:52:00,
2013-03-11 01:02:00,28.0,26.0,29.98,WNW,293,2.0,4.0,93,0.00,,,0.00,,2013-03-11 08:02:00,
2013-03-11 01:11:00,28.0,26.0,29.98,WNW,293,2.0,4.0,93,0.00,,,0.00,,2013-03-11 08:11:00,
2013-03-11 01:22:00,27.0,25.0,29.98,WNW,303,1.0,4.0,93,0.00,,,0.00,,2013-03-11 08:22:00,
2013-03-11 01:32:00,28.0,27.0,29.98,WNW,291,2.0,4.0,94,0.00,,,0.00,,2013-03-11 08:32:00,
2013-03-11 01:42:00,28.0,27.0,29.98,WNW,291,2.0,4.0,94,0.00,,,0.00,,2013-03-11 08:42:00,
2013-03-11 01:52:00,28.0,27.0,29.98,WNW,284,0.0,3.0,95,0.00,,,0.00,,2013-03-11 08:52:00,
2013-03-11 02:01:00,28.0,27.0,29.99,North,350,0.0,2.0,95,0.00,,,0.00,,2013-03-11 09:01:00,
2013-03-11 02:11:00,28.0,27.0,29.99,North,350,0.0,2.0,95,0.00,,,0.00,,2013-03-11 09:11:00,
2013-03-11 02:22:00,28.0,27.0,30.00,West,270,0.0,3.0,95,0.00,,,0.00,,2013-03-11 09:22:00,
2013-03-11 02:31:00,28.0,27.0,30.00,WSW,238,0.0,3.0,95,0.00,,,0.00,,2013-03-11 09:31:00,
2013-03-11 02:42:00,28.0,27.0,30.00,WSW,238,0.0,3.0,95,0.00,,,0.00,,2013-03-11 09:42:00,
2013-03-11 02:52:00,28.0,27.0,30.00,WSW,238,0.0,3.0,95,0.00,,,0.00,,2013-03-11 09:52:00,
2013-03-11 03:02:00,28.0,27.0,30.01,WNW,299,2.0,4.0,95,0.00,,,0.00,,2013-03-11 10:02:00,
2013-03-11 03:12:00,28.0,27.0,30.01,WNW,299,2.0,4.0,95,0.00,,,0.00,,2013-03-11 10:12:00,
2013-03-11 03:21:00,29.0,28.0,30.01,NNW,344,1.0,4.0,96,0.00,,,0.00,,2013-03-11 10:21:00,
2013-03-11 03:41:00,28.0,27.0,30.01,WNW,297,1.0,4.0,95,0.00,,,0.00,,2013-03-11 10:41:00,
2013-03-11 03:52:00,28.0,27.0,30.01,WNW,297,1.0,4.0,95,0.00,,,0.00,,2013-03-11 10:52:00,
2013-03-11 04:01:00,28.0,27.0,30.01,NW,314,2.0,4.0,95,0.00,,,0.00,,2013-03-11 11:01:00,
2013-03-11 04:11:00,28.0,27.0,30.01,NW,314,2.0,4.0,95,0.00,,,0.00,,2013-03-11 11:11:00,
2013-03-11 04:22:00,27.0,26.0,30.01,NW,321,0.0,4.0,95,0.00,,,0.00,,2013-03-11 11:22:00,
2013-03-11 04:32:00,27.0,26.0,30.01,NW,314,2.0,4.0,95,0.00,,,0.00,,2013-03-11 11:32:00,
2013-03-11 04:42:00,27.0,26.0,30.01,NW,314,2.0,4.0,95,0.00,,,0.00,,2013-03-11 11:42:00,
2013-03-11 04:52:00,28.0,27.0,30.01,WNW,282,1.0,3.0,96,0.00,,,0.00,,2013-03-11 11:52:00,
2013-03-11 05:01:00,28.0,27.0,30.01,WNW,291,1.0,3.0,96,0.00,,,0.00,,2013-03-11 12:01:00,
2013-03-11 05:11:00,28.0,27.0,30.01,WNW,291,1.0,3.0,96,0.00,,,0.00,,2013-03-11 12:11:00,
2013-03-11 05:22:00,28.0,27.0,30.01,North,8,2.0,4.0,96,0.00,,,0.00,,2013-03-11 12:22:00,
2013-03-11 05:32:00,28.0,27.0,30.01,NW,310,0.0,3.0,96,0.00,,,0.00,,2013-03-11 12:32:00,
2013-03-11 05:42:00,28.0,27.0,30.01,NW,310,0.0,3.0,96,0.00,,,0.00,,2013-03-11 12:42:00,
2013-03-11 05:52:00,28.0,27.0,30.03,West,278,2.0,4.0,96,0.00,,,0.00,,2013-03-11 12:52:00,
2013-03-11 06:02:00,28.0,27.0,30.03,West,278,2.0,4.0,96,0.00,,,0.00,,2013-03-11 13:02:00,
2013-03-11 06:12:00,28.0,27.0,30.03,West,278,2.0,4.0,96,0.00,,,0.00,,2013-03-11 13:12:00,
2013-03-11 06:22:00,28.0,27.0,30.03,WSW,257,1.0,2.0,97,0.00,,,0.00,,2013-03-11 13:22:00,
2013-03-11 06:32:00,28.0,27.0,30.04,WSW,249,2.0,4.0,97,0.00,,,0.00,,2013-03-11 13:32:00,
2013-03-11 06:43:00,28.0,27.0,30.04,WSW,249,2.0,4.0,97,0.00,,,0.00,,2013-03-11 13:43:00,
2013-03-11 06:52:00,28.0,27.0,30.05,WNW,295,2.0,3.0,97,0.00,,,0.00,,2013-03-11 13:52:00,
2013-03-11 07:01:00,27.0,26.0,30.05,NW,305,2.0,4.0,97,0.00,,,0.00,,2013-03-11 14:01:00,
2013-03-11 07:12:00,27.0,26.0,30.05,NW,305,2.0,4.0,97,0.00,,,0.00,,2013-03-11 14:12:00,
2013-03-11 07:22:00,27.0,26.0,30.05,WNW,294,1.0,4.0,97,0.00,,,0.00,,2013-03-11 14:22:00,
2013-03-11 07:32:00,27.0,26.0,30.05,WNW,294,1.0,4.0,97,0.00,,,0.00,,2013-03-11 14:32:00,
2013-03-11 07:42:00,27.0,26.0,30.05,WNW,294,1.0,4.0,97,0.00,,,0.00,,2013-03-11 14:42:00,
2013-03-11 07:53:00,26.0,25.0,30.05,NW,311,2.0,4.0,96,0.00,,,0.00,,2013-03-11 14:53:00,
2013-03-11 08:02:00,26.0,25.0,30.06,NW,307,2.0,4.0,96,0.00,,,0.00,,2013-03-11 15:02:00,
2013-03-11 08:12:00,26.0,25.0,30.06,NW,307,2.0,4.0,96,0.00,,,0.00,,2013-03-11 15:12:00,
2013-03-11 08:22:00,26.0,25.0,30.06,WNW,288,1.0,4.0,97,0.00,,,0.00,,2013-03-11 15:22:00,
2013-03-11 08:31:00,27.0,27.0,30.06,West,279,2.0,3.0,98,0.00,,,0.00,,2013-03-11 15:31:00,
2013-03-11 08:42:00,27.0,27.0,30.06,West,279,2.0,3.0,98,0.00,,,0.00,,2013-03-11 15:42:00,
2013-03-11 08:52:00,30.0,30.0,30.06,West,265,0.0,3.0,99,0.00,,,0.00,,2013-03-11 15:52:00,
2013-03-11 09:02:00,32.0,31.0,30.07,SSE,160,2.0,4.0,97,0.00,,,0.00,,2013-03-11 16:02:00,
2013-03-11 09:12:00,32.0,31.0,30.07,SSE,160,2.0,4.0,97,0.00,,,0.00,,2013-03-11 16:12:00,
2013-03-11 09:22:00,32.0,31.0,30.07,SSE,160,2.0,4.0,97,0.00,,,0.00,,2013-03-11 16:22:00,
2013-03-11 09:32:00,35.0,33.0,30.07,SSE,153,0.0,7.0,91,0.00,,,0.00,,2013-03-11 16:32:00,
2013-03-11 09:42:00,35.0,33.0,30.07,SSE,153,0.0,7.0,91,0.00,,,0.00,,2013-03-11 16:42:00,
2013-03-11 09:52:00,35.0,32.0,30.07,SE,143,0.0,6.0,90,0.00,,,0.00,,2013-03-11 16:52:00,
2013-03-11 10:02:00,36.0,33.0,30.07,SSW,199,1.0,8.0,87,0.00,,,0.00,,2013-03-11 17:02:00,
2013-03-11 10:13:00,36.0,33.0,30.07,SSW,199,1.0,8.0,87,0.00,,,0.00,,2013-03-11 17:13:00,
2013-03-11 10:23:00,40.0,34.0,30.07,SSE,148,2.0,4.0,79,0.00,,,0.00,,2013-03-11 17:23:00,
2013-03-11 10:34:00,40.0,33.0,30.07,ESE,114,2.0,4.0,76,0.00,,,0.00,,2013-03-11 17:34:00,
2013-03-11 10:42:00,40.0,33.0,30.07,ESE,114,2.0,4.0,76,0.00,,,0.00,,2013-03-11 17:42:00,
2013-03-11 10:53:00,41.0,33.0,30.07,ESE,103,2.0,4.0,73,0.00,,,0.00,,2013-03-11 17:53:00,
2013-03-11 11:01:00,42.0,32.0,30.06,SSE,156,2.0,6.0,68,0.00,,,0.00,,2013-03-11 18:01:00,
2013-03-11 11:11:00,42.0,32.0,30.06,SSE,156,2.0,6.0,68,0.00,,,0.00,,2013-03-11 18:11:00,
2013-03-11 11:22:00,43.0,31.0,30.06,South,172,4.0,6.0,63,0.00,,,0.00,,2013-03-11 18:22:00,
2013-03-11 11:32:00,47.0,31.0,30.06,East,94,2.0,10.0,54,0.00,,,0.00,,2013-03-11 18:32:00,
2013-03-11 11:42:00,47.0,31.0,30.06,East,94,2.0,10.0,54,0.00,,,0.00,,2013-03-11 18:42:00,
2013-03-11 11:52:00,48.0,27.0,30.05,South,169,5.0,9.0,43,0.00,,,0.00,,2013-03-11 18:52:00,
2013-03-11 12:02:00,48.0,25.0,30.04,SSE,155,6.0,10.0,40,0.00,,,0.00,,2013-03-11 19:02:00,
2013-03-11 12:12:00,48.0,25.0,30.04,SSE,155,6.0,10.0,40,0.00,,,0.00,,2013-03-11 19:12:00,
2013-03-11 12:22:00,49.0,24.0,30.04,SSE,162,7.0,12.0,37,0.00,,,0.00,,2013-03-11 19:22:00,
2013-03-11 12:32:00,50.0,26.0,30.03,SSE,156,7.0,15.0,39,0.00,,,0.00,,2013-03-11 19:32:00,
2013-03-11 12:42:00,50.0,26.0,30.03,SSE,156,7.0,15.0,39,0.00,,,0.00,,2013-03-11 19:42:00,
2013-03-11 12:52:00,50.0,25.0,30.04,South,174,11.0,17.0,38,0.00,,,0.00,,2013-03-11 19:52:00,
2013-03-11 13:02:00,50.0,24.0,30.03,SSE,161,4.0,15.0,36,0.00,,,0.00,,2013-03-11 20:02:00,
2013-03-11 13:11:00,50.0,24.0,30.03,SSE,161,4.0,15.0,36,0.00,,,0.00,,2013-03-11 20:11:00,
2013-03-11 13:22:00,51.0,24.0,30.03,SSE,155,4.0,13.0,34,0.00,,,0.00,,2013-03-11 20:22:00,
2013-03-11 13:32:00,51.0,23.0,30.02,SSE,158,8.0,13.0,33,0.00,,,0.00,,2013-03-11 20:32:00,
2013-03-11 13:42:00,51.0,23.0,30.02,SSE,158,8.0,13.0,33,0.00,,,0.00,,2013-03-11 20:42:00,
2013-03-11 13:53:00,50.0,21.0,30.01,SSE,153,8.0,13.0,32,0.00,,,0.00,,2013-03-11 20:53:00,
2013-03-11 14:02:00,50.0,21.0,30.00,SSE,154,2.0,8.0,32,0.00,,,0.00,,2013-03-11 21:02:00,
2013-03-11 14:12:00,50.0,21.0,30.00,SSE,154,2.0,8.0,32,0.00,,,0.00,,2013-03-11 21:12:00,
2013-03-11 14:22:00,51.0,22.0,30.01,SE,142,8.0,11.0,32,0.00,,,0.00,,2013-03-11 21:22:00,
2013-03-11 14:32:00,53.0,23.0,30.00,South,174,2.0,11.0,31,0.00,,,0.00,,2013-03-11 21:32:00,
2013-03-11 14:42:00,53.0,23.0,30.00,South,174,2.0,11.0,31,0.00,,,0.00,,2013-03-11 21:42:00,
2013-03-11 14:52:00,52.0,20.0,29.99,SSE,162,7.0,14.0,28,0.00,,,0.00,,2013-03-11 21:52:00,
2013-03-11 15:02:00,53.0,20.0,29.99,South,187,11.0,17.0,27,0.00,,,0.00,,2013-03-11 22:02:00,
2013-03-11 15:12:00,53.0,20.0,29.99,South,187,11.0,17.0,27,0.00,,,0.00,,2013-03-11 22:12:00,
2013-03-11 15:22:00,53.0,20.0,29.99,SSE,150,7.0,12.0,27,0.00,,,0.00,,2013-03-11 22:22:00,
2013-03-11 15:32:00,54.0,22.0,29.98,South,190,2.0,13.0,28,0.00,,,0.00,,2013-03-11 22:32:00,
2013-03-11 15:43:00,54.0,22.0,29.98,South,190,2.0,13.0,28,0.00,,,0.00,,2013-03-11 22:43:00,
2013-03-11 15:53:00,54.0,22.0,29.98,South,179,3.0,9.0,28,0.00,,,0.00,,2013-03-11 22:53:00,
2013-03-11 16:02:00,53.0,19.0,29.98,South,179,3.0,16.0,26,0.00,,,0.00,,2013-03-11 23:02:00,
2013-03-11 16:12:00,53.0,19.0,29.98,South,179,3.0,16.0,26,0.00,,,0.00,,2013-03-11 23:12:00,
2013-03-11 16:22:00,53.0,22.0,29.98,South,178,4.0,17.0,30,0.00,,,0.00,,2013-03-11 23:22:00,
2013-03-11 16:32:00,54.0,21.0,29.98,SW,222,2.0,8.0,27,0.00,,,0.00,,2013-03-11 23:32:00,
2013-03-11 16:42:00,54.0,21.0,29.98,SW,222,2.0,8.0,27,0.00,,,0.00,,2013-03-11 23:42:00,
2013-03-11 16:53:00,54.0,18.0,29.98,WSW,249,4.0,11.0,24,0.00,,,0.00,,2013-03-11 23:53:00,
2013-03-11 17:02:00,53.0,20.0,29.98,SSW,193,3.0,8.0,27,0.00,,,0.00,,2013-03-12 00:02:00,
2013-03-11 17:12:00,53.0,20.0,29.98,SSW,193,3.0,8.0,27,0.00,,,0.00,,2013-03-12 00:12:00,
2013-03-11 17:22:00,53.0,25.0,29.98,West,270,3.0,5.0,34,0.00,,,0.00,,2013-03-12 00:22:00,
2013-03-11 17:32:00,51.0,21.0,29.97,SW,214,2.0,8.0,31,0.00,,,0.00,,2013-03-12 00:32:00,
2013-03-11 17:42:00,51.0,21.0,29.97,SW,214,2.0,8.0,31,0.00,,,0.00,,2013-03-12 00:42:00,
2013-03-11 17:52:00,49.0,25.0,29.97,WSW,251,3.0,7.0,38,0.00,,,0.00,,2013-03-12 00:52:00,
2013-03-11 18:02:00,47.0,25.0,29.96,WNW,290,1.0,5.0,42,0.00,,,0.00,,2013-03-12 01:02:00,
2013-03-11 18:11:00,47.0,25.0,29.96,WNW,290,1.0,5.0,42,0.00,,,0.00,,2013-03-12 01:11:00,
2013-03-11 18:22:00,46.0,25.0,29.96,West,270,2.0,4.0,43,0.00,,,0.00,,2013-03-12 01:22:00,
2013-03-11 18:32:00,46.0,25.0,29.96,West,270,2.0,4.0,43,0.00,,,0.00,,2013-03-12 01:32:00,
2013-03-11 18:42:00,46.0,25.0,29.96,West,270,2.0,4.0,43,0.00,,,0.00,,2013-03-12 01:42:00,
2013-03-11 18:52:00,41.0,27.0,29.96,NW,308,4.0,7.0,56,0.00,,,0.00,,2013-03-12 01:52:00,
2013-03-11 19:01:00,39.0,27.0,29.96,NW,306,4.0,7.0,61,0.00,,,0.00,,2013-03-12 02:01:00,
2013-03-11 19:22:00,37.0,27.0,29.96,WNW,300,4.0,7.0,66,0.00,,,0.00,,2013-03-12 02:22:00,
2013-03-11 19:32:00,37.0,27.0,29.96,WNW,288,4.0,6.0,67,0.00,,,0.00,,2013-03-12 02:32:00,
2013-03-11 19:42:00,37.0,27.0,29.96,WNW,288,4.0,6.0,67,0.00,,,0.00,,2013-03-12 02:42:00,
2013-03-11 19:52:00,36.0,27.0,29.96,NW,311,3.0,8.0,69,0.00,,,0.00,,2013-03-12 02:52:00,
2013-03-11 20:01:00,36.0,28.0,29.96,NW,314,4.0,7.0,71,0.00,,,0.00,,2013-03-12 03:01:00,
2013-03-11 20:12:00,36.0,28.0,29.96,NW,314,4.0,7.0,71,0.00,,,0.00,,2013-03-12 03:12:00,
2013-03-11 20:22:00,36.0,28.0,29.96,NW,308,4.0,6.0,72,0.00,,,0.00,,2013-03-12 03:22:00,
2013-03-11 20:32:00,36.0,28.0,29.96,NW,314,3.0,7.0,72,0.00,,,0.00,,2013-03-12 03:32:00,
2013-03-11 20:42:00,36.0,28.0,29.96,NW,314,3.0,7.0,72,0.00,,,0.00,,2013-03-12 03:42:00,
2013-03-11 20:52:00,36.0,28.0,29.96,NW,313,4.0,6.0,72,0.00,,,0.00,,2013-03-12 03:52:00,
2013-03-11 21:02:00,36.0,28.0,29.96,NW,314,3.0,6.0,73,0.00,,,0.00,,2013-03-12 04:02:00,
2013-03-11 21:12:00,36.0,28.0,29.96,NW,314,3.0,6.0,73,0.00,,,0.00,,2013-03-12 04:12:00,
2013-03-11 21:22:00,36.0,29.0,29.96,NW,310,4.0,4.0,74,0.00,,,0.00,,2013-03-12 04:22:00,
2013-03-11 21:32:00,36.0,29.0,29.96,NW,321,3.0,5.0,75,0.00,,,0.00,,2013-03-12 04:32:00,
2013-03-11 21:42:00,36.0,29.0,29.96,NW,321,3.0,5.0,75,0.00,,,0.00,,2013-03-12 04:42:00,
2013-03-11 21:52:00,36.0,29.0,29.96,WNW,302,2.0,4.0,75,0.00,,,0.00,,2013-03-12 04:52:00,
2013-03-11 22:02:00,36.0,29.0,29.97,NW,304,2.0,4.0,74,0.00,,,0.00,,2013-03-12 05:02:00,
2013-03-11 22:11:00,36.0,29.0,29.97,NW,304,2.0,4.0,74,0.00,,,0.00,,2013-03-12 05:11:00,
2013-03-11 22:21:00,36.0,29.0,29.97,NW,304,2.0,4.0,74,0.00,,,0.00,,2013-03-12 05:21:00,
2013-03-11 22:32:00,37.0,28.0,29.96,NW,321,2.0,5.0,71,0.00,,,0.00,,2013-03-12 05:32:00,
2013-03-11 22:42:00,37.0,28.0,29.96,NW,321,2.0,5.0,71,0.00,,,0.00,,2013-03-12 05:42:00,
2013-03-11 22:52:00,37.0,28.0,29.97,NW,318,2.0,4.0,71,0.00,,,0.00,,2013-03-12 05:52:00,
2013-03-11 23:02:00,37.0,26.0,29.97,North,349,1.0,5.0,65,0.00,,,0.00,,2013-03-12 06:02:00,
2013-03-11 23:11:00,37.0,26.0,29.97,North,349,1.0,5.0,65,0.00,,,0.00,,2013-03-12 06:11:00,
2013-03-11 23:22:00,37.0,26.0,29.97,North,349,1.0,5.0,65,0.00,,,0.00,,2013-03-12 06:22:00,
2013-03-11 23:32:00,38.0,27.0,29.97,NW,314,1.0,6.0,63,0.00,,,0.00,,2013-03-12 06:32:00,
2013-03-11 23:42:00,38.0,27.0,29.97,NW,314,1.0,6.0,63,0.00,,,0.00,,2013-03-12 06:42:00,
2013-03-11 23:52:00,37.0,27.0,29.98,NW,313,0.0,4.0,68,0.00,,,0.00,,2013-03-12 06:52:00,